Year,Month,Day,Hour,Minute,Value (Times are PST for temperature in C)
2022,10,05,00,00,12.10
2022,10,05,00,01,12.10
2022,10,05,00,02,12.10
2022,10,05,00,03,12.10
2022,10,05,00,04,12.10
2022,10,05,00,05,12.10
2022,10,05,00,06,12.10
2022,10,05,00,07,12.10
2022,10,05,00,08,12.10
2022,10,05,00,09,12.10
2022,10,05,00,10,12.10
2022,10,05,00,11,12.10
2022,10,05,00,12,12.10
2022,10,05,00,13,12.10
2022,10,05,00,14,12.10
2022,10,05,00,15,12.10
2022,10,05,00,16,12.00
2022,10,05,00,17,12.00
2022,10,05,00,18,12.00
2022,10,05,00,19,12.00
2022,10,05,00,20,12.00
2022,10,05,00,21,11.90
2022,10,05,00,22,11.90
2022,10,05,00,23,11.90
2022,10,05,00,24,11.90
2022,10,05,00,25,12.00
2022,10,05,00,26,12.00
2022,10,05,00,27,12.00
2022,10,05,00,28,12.00
2022,10,05,00,29,12.00
2022,10,05,00,30,12.00
2022,10,05,00,31,12.00
2022,10,05,00,32,12.00
2022,10,05,00,33,12.00
2022,10,05,00,34,12.00
2022,10,05,00,35,12.10
2022,10,05,00,36,12.10
2022,10,05,00,37,12.10
2022,10,05,00,38,12.10
2022,10,05,00,39,12.10
2022,10,05,00,40,12.10
2022,10,05,00,41,12.10
2022,10,05,00,42,12.10
2022,10,05,00,43,12.10
2022,10,05,00,44,12.10
2022,10,05,00,45,12.10
2022,10,05,00,46,12.10
2022,10,05,00,47,12.10
2022,10,05,00,48,12.10
2022,10,05,00,49,12.00
2022,10,05,00,50,12.00
2022,10,05,00,51,12.00
2022,10,05,00,52,11.90
2022,10,05,00,53,11.90
2022,10,05,00,54,11.80
2022,10,05,00,55,11.80
2022,10,05,00,56,11.80
2022,10,05,00,57,11.80
2022,10,05,00,58,11.70
2022,10,05,00,59,11.70
2022,10,05,01,00,11.70
2022,10,05,01,01,11.70
2022,10,05,01,02,11.60
2022,10,05,01,03,11.60
2022,10,05,01,04,11.60
2022,10,05,01,05,11.60
2022,10,05,01,06,11.60
2022,10,05,01,07,11.70
2022,10,05,01,08,11.70
2022,10,05,01,09,11.70
2022,10,05,01,10,11.70
2022,10,05,01,11,11.70
2022,10,05,01,12,11.70
2022,10,05,01,13,11.70
2022,10,05,01,14,11.60
2022,10,05,01,15,11.60
2022,10,05,01,16,11.60
2022,10,05,01,17,11.60
2022,10,05,01,18,11.60
2022,10,05,01,19,11.60
2022,10,05,01,20,11.60
2022,10,05,01,21,11.70
2022,10,05,01,22,11.70
2022,10,05,01,23,11.70
2022,10,05,01,24,11.70
2022,10,05,01,25,11.60
2022,10,05,01,26,11.60
2022,10,05,01,27,11.50
2022,10,05,01,28,11.40
2022,10,05,01,29,11.40
2022,10,05,01,30,11.30
2022,10,05,01,31,11.30
2022,10,05,01,32,11.30
2022,10,05,01,33,11.30
2022,10,05,01,34,11.30
2022,10,05,01,35,11.30
2022,10,05,01,36,11.40
2022,10,05,01,37,11.40
2022,10,05,01,38,11.40
2022,10,05,01,39,11.40
2022,10,05,01,40,11.40
2022,10,05,01,41,11.40
2022,10,05,01,42,11.50
2022,10,05,01,43,11.50
2022,10,05,01,44,11.50
2022,10,05,01,45,11.50
2022,10,05,01,46,11.40
2022,10,05,01,47,11.40
2022,10,05,01,48,11.40
2022,10,05,01,49,11.30
2022,10,05,01,50,11.30
2022,10,05,01,51,11.30
2022,10,05,01,52,11.30
2022,10,05,01,53,11.30
2022,10,05,01,54,11.30
2022,10,05,01,55,11.30
2022,10,05,01,56,11.30
2022,10,05,01,57,11.30
2022,10,05,01,58,11.30
2022,10,05,01,59,11.40
2022,10,05,02,00,11.40
2022,10,05,02,01,11.40
2022,10,05,02,02,11.40
2022,10,05,02,03,11.40
2022,10,05,02,04,11.40
2022,10,05,02,05,11.40
2022,10,05,02,06,11.40
2022,10,05,02,07,11.40
2022,10,05,02,08,11.40
2022,10,05,02,09,11.40
2022,10,05,02,10,11.30
2022,10,05,02,11,11.30
2022,10,05,02,12,11.30
2022,10,05,02,13,11.30
2022,10,05,02,14,11.30
2022,10,05,02,15,11.30
2022,10,05,02,16,11.30
2022,10,05,02,17,11.30
2022,10,05,02,18,11.30
2022,10,05,02,19,11.30
2022,10,05,02,20,11.30
2022,10,05,02,21,11.30
2022,10,05,02,22,11.30
2022,10,05,02,23,11.30
2022,10,05,02,24,11.20
2022,10,05,02,25,11.30
2022,10,05,02,26,11.30
2022,10,05,02,27,11.20
2022,10,05,02,28,11.20
2022,10,05,02,29,11.20
2022,10,05,02,30,11.20
2022,10,05,02,31,11.20
2022,10,05,02,32,11.20
2022,10,05,02,33,11.20
2022,10,05,02,34,11.20
2022,10,05,02,35,11.20
2022,10,05,02,36,11.20
2022,10,05,02,37,11.20
2022,10,05,02,38,11.20
2022,10,05,02,39,11.20
2022,10,05,02,40,11.10
2022,10,05,02,41,11.10
2022,10,05,02,42,11.10
2022,10,05,02,43,11.10
2022,10,05,02,44,11.10
2022,10,05,02,45,11.10
2022,10,05,02,46,11.10
2022,10,05,02,47,11.10
2022,10,05,02,48,11.10
2022,10,05,02,49,11.10
2022,10,05,02,50,11.10
2022,10,05,02,51,11.10
2022,10,05,02,52,11.10
2022,10,05,02,53,11.10
2022,10,05,02,54,11.10
2022,10,05,02,55,11.10
2022,10,05,02,56,11.10
2022,10,05,02,57,11.10
2022,10,05,02,58,11.10
2022,10,05,02,59,11.10
2022,10,05,03,00,11.00
2022,10,05,03,01,11.00
2022,10,05,03,02,11.00
2022,10,05,03,03,11.00
2022,10,05,03,04,11.00
2022,10,05,03,05,10.90
2022,10,05,03,06,10.90
2022,10,05,03,07,10.90
2022,10,05,03,08,10.90
2022,10,05,03,09,10.90
2022,10,05,03,10,10.90
2022,10,05,03,11,10.80
2022,10,05,03,12,10.80
2022,10,05,03,13,10.80
2022,10,05,03,14,10.80
2022,10,05,03,15,10.80
2022,10,05,03,16,10.80
2022,10,05,03,17,10.80
2022,10,05,03,18,10.80
2022,10,05,03,19,10.80
2022,10,05,03,20,10.80
2022,10,05,03,21,10.80
2022,10,05,03,22,10.80
2022,10,05,03,23,10.80
2022,10,05,03,24,10.80
2022,10,05,03,25,10.80
2022,10,05,03,26,10.80
2022,10,05,03,27,10.80
2022,10,05,03,28,10.80
2022,10,05,03,29,10.80
2022,10,05,03,30,10.80
2022,10,05,03,31,10.70
2022,10,05,03,32,10.70
2022,10,05,03,33,10.60
2022,10,05,03,34,10.50
2022,10,05,03,35,10.50
2022,10,05,03,36,10.40
2022,10,05,03,37,10.30
2022,10,05,03,38,10.30
2022,10,05,03,39,10.30
2022,10,05,03,40,10.30
2022,10,05,03,41,10.20
2022,10,05,03,42,10.20
2022,10,05,03,43,10.30
2022,10,05,03,44,10.30
2022,10,05,03,45,10.30
2022,10,05,03,46,10.40
2022,10,05,03,47,10.40
2022,10,05,03,48,10.40
2022,10,05,03,49,10.50
2022,10,05,03,50,10.50
2022,10,05,03,51,10.60
2022,10,05,03,52,10.60
2022,10,05,03,53,10.60
2022,10,05,03,54,10.60
2022,10,05,03,55,10.60
2022,10,05,03,56,10.60
2022,10,05,03,57,10.60
2022,10,05,03,58,10.60
2022,10,05,03,59,10.70
2022,10,05,04,00,10.70
2022,10,05,04,01,10.70
2022,10,05,04,02,10.70
2022,10,05,04,03,10.60
2022,10,05,04,04,10.60
2022,10,05,04,05,10.70
2022,10,05,04,06,10.70
2022,10,05,04,07,10.70
2022,10,05,04,08,10.70
2022,10,05,04,09,10.80
2022,10,05,04,10,10.80
2022,10,05,04,11,10.80
2022,10,05,04,12,10.80
2022,10,05,04,13,10.80
2022,10,05,04,14,10.90
2022,10,05,04,15,10.90
2022,10,05,04,16,10.90
2022,10,05,04,17,10.80
2022,10,05,04,18,10.80
2022,10,05,04,19,10.80
2022,10,05,04,20,10.70
2022,10,05,04,21,10.70
2022,10,05,04,22,10.60
2022,10,05,04,23,10.60
2022,10,05,04,24,10.50
2022,10,05,04,25,10.50
2022,10,05,04,26,10.60
2022,10,05,04,27,10.60
2022,10,05,04,28,10.60
2022,10,05,04,29,10.60
2022,10,05,04,30,10.60
2022,10,05,04,31,10.60
2022,10,05,04,32,10.60
2022,10,05,04,33,10.60
2022,10,05,04,34,10.60
2022,10,05,04,35,10.60
2022,10,05,04,36,10.50
2022,10,05,04,37,10.50
2022,10,05,04,38,10.50
2022,10,05,04,39,10.50
2022,10,05,04,40,10.50
2022,10,05,04,41,10.50
2022,10,05,04,42,10.50
2022,10,05,04,43,10.50
2022,10,05,04,44,10.50
2022,10,05,04,45,10.50
2022,10,05,04,46,10.50
2022,10,05,04,47,10.50
2022,10,05,04,48,10.50
2022,10,05,04,49,10.60
2022,10,05,04,50,10.50
2022,10,05,04,51,10.50
2022,10,05,04,52,10.60
2022,10,05,04,53,10.50
2022,10,05,04,54,10.50
2022,10,05,04,55,10.50
2022,10,05,04,56,10.50
2022,10,05,04,57,10.50
2022,10,05,04,58,10.50
2022,10,05,04,59,10.40
2022,10,05,05,00,10.40
2022,10,05,05,01,10.40
2022,10,05,05,02,10.40
2022,10,05,05,03,10.40
2022,10,05,05,04,10.40
2022,10,05,05,05,10.40
2022,10,05,05,06,10.30
2022,10,05,05,07,10.30
2022,10,05,05,08,10.30
2022,10,05,05,09,10.30
2022,10,05,05,10,10.30
2022,10,05,05,11,10.30
2022,10,05,05,12,10.30
2022,10,05,05,13,10.30
2022,10,05,05,14,10.40
2022,10,05,05,15,10.30
2022,10,05,05,16,10.40
2022,10,05,05,17,10.30
2022,10,05,05,18,10.30
2022,10,05,05,19,10.30
2022,10,05,05,20,10.30
2022,10,05,05,21,10.30
2022,10,05,05,22,10.30
2022,10,05,05,23,10.30
2022,10,05,05,24,10.30
2022,10,05,05,25,10.30
2022,10,05,05,26,10.30
2022,10,05,05,27,10.30
2022,10,05,05,28,10.30
2022,10,05,05,29,10.20
2022,10,05,05,30,10.20
2022,10,05,05,31,10.20
2022,10,05,05,32,10.20
2022,10,05,05,33,10.20
2022,10,05,05,34,10.20
2022,10,05,05,35,10.20
2022,10,05,05,36,10.20
2022,10,05,05,37,10.20
2022,10,05,05,38,10.20
2022,10,05,05,39,10.20
2022,10,05,05,40,10.20
2022,10,05,05,41,10.20
2022,10,05,05,42,10.20
2022,10,05,05,43,10.20
2022,10,05,05,44,10.20
2022,10,05,05,45,10.20
2022,10,05,05,46,10.20
2022,10,05,05,47,10.20
2022,10,05,05,48,10.20
2022,10,05,05,49,10.20
2022,10,05,05,50,10.20
2022,10,05,05,51,10.20
2022,10,05,05,52,10.20
2022,10,05,05,53,10.20
2022,10,05,05,54,10.20
2022,10,05,05,55,10.20
2022,10,05,05,56,10.10
2022,10,05,05,57,10.10
2022,10,05,05,58,10.20
2022,10,05,05,59,10.20
2022,10,05,06,00,10.20
2022,10,05,06,01,10.20
2022,10,05,06,02,10.20
2022,10,05,06,03,10.20
2022,10,05,06,04,10.20
2022,10,05,06,05,10.20
2022,10,05,06,06,10.20
2022,10,05,06,07,10.20
2022,10,05,06,08,10.20
2022,10,05,06,09,10.10
2022,10,05,06,10,10.10
2022,10,05,06,11,10.10
2022,10,05,06,12,10.10
2022,10,05,06,13,10.10
2022,10,05,06,14,10.10
2022,10,05,06,15,10.10
2022,10,05,06,16,10.00
2022,10,05,06,17,10.00
2022,10,05,06,18,10.00
2022,10,05,06,19,10.00
2022,10,05,06,20,10.00
2022,10,05,06,21,10.00
2022,10,05,06,22,9.90
2022,10,05,06,23,9.90
2022,10,05,06,24,9.90
2022,10,05,06,25,9.90
2022,10,05,06,26,9.90
2022,10,05,06,27,9.90
2022,10,05,06,28,9.80
2022,10,05,06,29,9.80
2022,10,05,06,30,9.80
2022,10,05,06,31,9.80
2022,10,05,06,32,9.80
2022,10,05,06,33,9.70
2022,10,05,06,34,9.70
2022,10,05,06,35,9.70
2022,10,05,06,36,9.70
2022,10,05,06,37,9.60
2022,10,05,06,38,9.60
2022,10,05,06,39,9.60
2022,10,05,06,40,9.60
2022,10,05,06,41,9.60
2022,10,05,06,42,9.60
2022,10,05,06,43,9.60
2022,10,05,06,44,9.60
2022,10,05,06,45,9.70
2022,10,05,06,46,9.70
2022,10,05,06,47,9.70
2022,10,05,06,48,9.70
2022,10,05,06,49,9.80
2022,10,05,06,50,9.80
2022,10,05,06,51,9.80
2022,10,05,06,52,9.80
2022,10,05,06,53,9.90
2022,10,05,06,54,9.90
2022,10,05,06,55,9.90
2022,10,05,06,56,9.90
2022,10,05,06,57,9.90
2022,10,05,06,58,9.90
2022,10,05,06,59,9.90
2022,10,05,07,00,9.90
2022,10,05,07,01,9.90
2022,10,05,07,02,9.90
2022,10,05,07,03,9.90
2022,10,05,07,04,9.90
2022,10,05,07,05,9.90
2022,10,05,07,06,9.90
2022,10,05,07,07,9.90
2022,10,05,07,08,9.90
2022,10,05,07,09,9.90
2022,10,05,07,10,9.90
2022,10,05,07,11,9.90
2022,10,05,07,12,9.90
2022,10,05,07,13,10.00
2022,10,05,07,14,10.00
2022,10,05,07,15,10.00
2022,10,05,07,16,10.10
2022,10,05,07,17,10.10
2022,10,05,07,18,10.10
2022,10,05,07,19,10.10
2022,10,05,07,20,10.10
2022,10,05,07,21,10.10
2022,10,05,07,22,10.10
2022,10,05,07,23,10.10
2022,10,05,07,24,10.10
2022,10,05,07,25,10.10
2022,10,05,07,26,10.10
2022,10,05,07,27,10.10
2022,10,05,07,28,10.20
2022,10,05,07,29,10.20
2022,10,05,07,30,10.20
2022,10,05,07,31,10.20
2022,10,05,07,32,10.10
2022,10,05,07,33,10.10
2022,10,05,07,34,10.10
2022,10,05,07,35,10.10
2022,10,05,07,36,10.10
2022,10,05,07,37,10.20
2022,10,05,07,38,10.20
2022,10,05,07,39,10.20
2022,10,05,07,40,10.20
2022,10,05,07,41,10.20
2022,10,05,07,42,10.10
2022,10,05,07,43,10.10
2022,10,05,07,44,10.10
2022,10,05,07,45,10.20
2022,10,05,07,46,10.20
2022,10,05,07,47,10.20
2022,10,05,07,48,10.20
2022,10,05,07,49,10.20
2022,10,05,07,50,10.10
2022,10,05,07,51,10.10
2022,10,05,07,52,10.10
2022,10,05,07,53,10.10
2022,10,05,07,54,10.10
2022,10,05,07,55,10.10
2022,10,05,07,56,10.10
2022,10,05,07,57,10.10
2022,10,05,07,58,10.10
2022,10,05,07,59,10.10
2022,10,05,08,00,10.10
2022,10,05,08,01,10.10
2022,10,05,08,02,10.10
2022,10,05,08,03,10.10
2022,10,05,08,04,10.10
2022,10,05,08,05,10.10
2022,10,05,08,06,10.10
2022,10,05,08,07,10.10
2022,10,05,08,08,10.20
2022,10,05,08,09,10.20
2022,10,05,08,10,10.20
2022,10,05,08,11,10.20
2022,10,05,08,12,10.30
2022,10,05,08,13,10.30
2022,10,05,08,14,10.30
2022,10,05,08,15,10.30
2022,10,05,08,16,10.40
2022,10,05,08,17,10.40
2022,10,05,08,18,10.40
2022,10,05,08,19,10.40
2022,10,05,08,20,10.40
2022,10,05,08,21,10.40
2022,10,05,08,22,10.40
2022,10,05,08,23,10.40
2022,10,05,08,24,10.40
2022,10,05,08,25,10.40
2022,10,05,08,26,10.40
2022,10,05,08,27,10.50
2022,10,05,08,28,10.50
2022,10,05,08,29,10.50
2022,10,05,08,30,10.60
2022,10,05,08,31,10.60
2022,10,05,08,32,10.60
2022,10,05,08,33,10.60
2022,10,05,08,34,10.60
2022,10,05,08,35,10.60
2022,10,05,08,36,10.70
2022,10,05,08,37,10.70
2022,10,05,08,38,10.70
2022,10,05,08,39,10.80
2022,10,05,08,40,10.80
2022,10,05,08,41,10.80
2022,10,05,08,42,10.90
2022,10,05,08,43,10.90
2022,10,05,08,44,10.90
2022,10,05,08,45,11.00
2022,10,05,08,46,11.00
2022,10,05,08,47,11.10
2022,10,05,08,48,11.10
2022,10,05,08,49,11.20
2022,10,05,08,50,11.20
2022,10,05,08,51,11.20
2022,10,05,08,52,11.20
2022,10,05,08,53,11.30
2022,10,05,08,54,11.30
2022,10,05,08,55,11.30
2022,10,05,08,56,11.40
2022,10,05,08,57,11.40
2022,10,05,08,58,11.50
2022,10,05,08,59,11.50
2022,10,05,09,00,11.60
2022,10,05,09,01,11.60
2022,10,05,09,02,11.60
2022,10,05,09,03,11.60
2022,10,05,09,04,11.60
2022,10,05,09,05,11.60
2022,10,05,09,06,11.70
2022,10,05,09,07,11.70
2022,10,05,09,08,11.70
2022,10,05,09,09,11.80
2022,10,05,09,10,11.80
2022,10,05,09,11,11.80
2022,10,05,09,12,11.90
2022,10,05,09,13,11.90
2022,10,05,09,14,12.00
2022,10,05,09,15,12.00
2022,10,05,09,16,12.10
2022,10,05,09,17,12.10
2022,10,05,09,18,12.20
2022,10,05,09,19,12.20
2022,10,05,09,20,12.30
2022,10,05,09,21,12.30
2022,10,05,09,22,12.40
2022,10,05,09,23,12.40
2022,10,05,09,24,12.50
2022,10,05,09,25,12.50
2022,10,05,09,26,12.60
2022,10,05,09,27,12.60
2022,10,05,09,28,12.60
2022,10,05,09,29,12.70
2022,10,05,09,30,12.70
2022,10,05,09,31,12.80
2022,10,05,09,32,12.80
2022,10,05,09,33,12.80
2022,10,05,09,34,12.90
2022,10,05,09,35,12.90
2022,10,05,09,36,13.00
2022,10,05,09,37,13.00
2022,10,05,09,38,13.10
2022,10,05,09,39,13.20
2022,10,05,09,40,13.30
2022,10,05,09,41,13.30
2022,10,05,09,42,13.40
2022,10,05,09,43,13.50
2022,10,05,09,44,13.60
2022,10,05,09,45,13.60
2022,10,05,09,46,13.70
2022,10,05,09,47,13.70
2022,10,05,09,48,13.70
2022,10,05,09,49,13.80
2022,10,05,09,50,13.80
2022,10,05,09,51,13.90
2022,10,05,09,52,13.90
2022,10,05,09,53,14.00
2022,10,05,09,54,14.10
2022,10,05,09,55,14.20
2022,10,05,09,56,14.30
2022,10,05,09,57,14.40
2022,10,05,09,58,14.40
2022,10,05,09,59,14.50
2022,10,05,10,00,14.60
2022,10,05,10,01,14.70
2022,10,05,10,02,14.70
2022,10,05,10,03,14.70
2022,10,05,10,04,14.80
2022,10,05,10,05,14.80
2022,10,05,10,06,14.80
2022,10,05,10,07,14.80
2022,10,05,10,08,14.90
2022,10,05,10,09,14.90
2022,10,05,10,10,14.90
2022,10,05,10,11,14.90
2022,10,05,10,12,15.00
2022,10,05,10,13,15.00
2022,10,05,10,14,15.10
2022,10,05,10,15,15.10
2022,10,05,10,16,15.20
2022,10,05,10,17,15.30
2022,10,05,10,18,15.30
2022,10,05,10,19,15.40
2022,10,05,10,20,15.50
2022,10,05,10,21,15.60
2022,10,05,10,22,15.60
2022,10,05,10,23,15.70
2022,10,05,10,24,15.80
2022,10,05,10,25,15.80
2022,10,05,10,26,15.90
2022,10,05,10,27,16.00
2022,10,05,10,28,16.10
2022,10,05,10,29,16.20
2022,10,05,10,30,16.30
2022,10,05,10,31,16.40
2022,10,05,10,32,16.40
2022,10,05,10,33,16.50
2022,10,05,10,34,16.60
2022,10,05,10,35,16.70
2022,10,05,10,36,16.70
2022,10,05,10,37,16.80
2022,10,05,10,38,16.80
2022,10,05,10,39,16.80
2022,10,05,10,40,16.90
2022,10,05,10,41,17.00
2022,10,05,10,42,17.10
2022,10,05,10,43,17.10
2022,10,05,10,44,17.10
2022,10,05,10,45,17.10
2022,10,05,10,46,17.20
2022,10,05,10,47,17.20
2022,10,05,10,48,17.20
2022,10,05,10,49,17.20
2022,10,05,10,50,17.20
2022,10,05,10,51,17.30
2022,10,05,10,52,17.30
2022,10,05,10,53,17.30
2022,10,05,10,54,17.40
2022,10,05,10,55,17.40
2022,10,05,10,56,17.50
2022,10,05,10,57,17.60
2022,10,05,10,58,17.60
2022,10,05,10,59,17.60
2022,10,05,11,00,17.60
2022,10,05,11,01,17.60
2022,10,05,11,02,17.60
2022,10,05,11,03,17.60
2022,10,05,11,04,17.60
2022,10,05,11,05,17.50
2022,10,05,11,06,17.50
2022,10,05,11,07,17.40
2022,10,05,11,08,17.40
2022,10,05,11,09,17.50
2022,10,05,11,10,17.60
2022,10,05,11,11,17.60
2022,10,05,11,12,17.70
2022,10,05,11,13,17.80
2022,10,05,11,14,17.80
2022,10,05,11,15,17.90
2022,10,05,11,16,17.90
2022,10,05,11,17,18.00
2022,10,05,11,18,18.00
2022,10,05,11,19,17.90
2022,10,05,11,20,17.90
2022,10,05,11,21,17.90
2022,10,05,11,22,18.00
2022,10,05,11,23,18.10
2022,10,05,11,24,18.10
2022,10,05,11,25,18.10
2022,10,05,11,26,18.10
2022,10,05,11,27,18.10
2022,10,05,11,28,18.00
2022,10,05,11,29,18.00
2022,10,05,11,30,18.00
2022,10,05,11,31,18.00
2022,10,05,11,32,18.00
2022,10,05,11,33,18.10
2022,10,05,11,34,18.10
2022,10,05,11,35,18.10
2022,10,05,11,36,18.10
2022,10,05,11,37,18.00
2022,10,05,11,38,17.90
2022,10,05,11,39,17.70
2022,10,05,11,40,17.60
2022,10,05,11,41,17.50
2022,10,05,11,42,17.50
2022,10,05,11,43,17.40
2022,10,05,11,44,17.40
2022,10,05,11,45,17.40
2022,10,05,11,46,17.40
2022,10,05,11,47,17.30
2022,10,05,11,48,17.30
2022,10,05,11,49,17.30
2022,10,05,11,50,17.30
2022,10,05,11,51,17.30
2022,10,05,11,52,17.30
2022,10,05,11,53,17.30
2022,10,05,11,54,17.20
2022,10,05,11,55,17.20
2022,10,05,11,56,17.20
2022,10,05,11,57,17.20
2022,10,05,11,58,17.20
2022,10,05,11,59,17.30
2022,10,05,12,00,17.30
2022,10,05,12,01,17.30
2022,10,05,12,02,17.40
2022,10,05,12,03,17.30
2022,10,05,12,04,17.30
2022,10,05,12,05,17.30
2022,10,05,12,06,17.30
2022,10,05,12,07,17.20
2022,10,05,12,08,17.20
2022,10,05,12,09,17.20
2022,10,05,12,10,17.20
2022,10,05,12,11,17.20
2022,10,05,12,12,17.20
2022,10,05,12,13,17.30
2022,10,05,12,14,17.30
2022,10,05,12,15,17.30
2022,10,05,12,16,17.30
2022,10,05,12,17,17.20
2022,10,05,12,18,17.20
2022,10,05,12,19,17.20
2022,10,05,12,20,17.20
2022,10,05,12,21,17.20
2022,10,05,12,22,17.20
2022,10,05,12,23,17.20
2022,10,05,12,24,17.20
2022,10,05,12,25,17.20
2022,10,05,12,26,17.10
2022,10,05,12,27,17.10
2022,10,05,12,28,17.10
2022,10,05,12,29,17.10
2022,10,05,12,30,17.10
2022,10,05,12,31,17.20
2022,10,05,12,32,17.20
2022,10,05,12,33,17.20
2022,10,05,12,34,17.20
2022,10,05,12,35,17.30
2022,10,05,12,36,17.30
2022,10,05,12,37,17.40
2022,10,05,12,38,17.40
2022,10,05,12,39,17.40
2022,10,05,12,40,17.50
2022,10,05,12,41,17.50
2022,10,05,12,42,17.50
2022,10,05,12,43,17.60
2022,10,05,12,44,17.60
2022,10,05,12,45,17.70
2022,10,05,12,46,17.70
2022,10,05,12,47,17.70
2022,10,05,12,48,17.70
2022,10,05,12,49,17.70
2022,10,05,12,50,17.70
2022,10,05,12,51,17.80
2022,10,05,12,52,17.80
2022,10,05,12,53,17.80
2022,10,05,12,54,17.90
2022,10,05,12,55,17.90
2022,10,05,12,56,17.90
2022,10,05,12,57,17.90
2022,10,05,12,58,17.90
2022,10,05,12,59,17.90
2022,10,05,13,00,17.90
2022,10,05,13,01,17.70
2022,10,05,13,02,17.50
2022,10,05,13,03,17.20
2022,10,05,13,04,17.00
2022,10,05,13,05,16.90
2022,10,05,13,06,16.70
2022,10,05,13,07,16.60
2022,10,05,13,08,16.50
2022,10,05,13,09,16.50
2022,10,05,13,10,16.60
2022,10,05,13,11,16.70
2022,10,05,13,12,16.70
2022,10,05,13,13,16.70
2022,10,05,13,14,16.70
2022,10,05,13,15,16.80
2022,10,05,13,16,16.80
2022,10,05,13,17,16.90
2022,10,05,13,18,17.00
2022,10,05,13,19,17.00
2022,10,05,13,20,17.10
2022,10,05,13,21,17.10
2022,10,05,13,22,17.10
2022,10,05,13,23,17.20
2022,10,05,13,24,17.20
2022,10,05,13,25,17.30
2022,10,05,13,26,17.40
2022,10,05,13,27,17.40
2022,10,05,13,28,17.40
2022,10,05,13,29,17.40
2022,10,05,13,30,17.50
2022,10,05,13,31,17.50
2022,10,05,13,32,17.70
2022,10,05,13,33,17.70
2022,10,05,13,34,17.80
2022,10,05,13,35,17.90
2022,10,05,13,36,18.00
2022,10,05,13,37,18.10
2022,10,05,13,38,18.20
2022,10,05,13,39,18.30
2022,10,05,13,40,18.40
2022,10,05,13,41,18.50
2022,10,05,13,42,18.60
2022,10,05,13,43,18.60
2022,10,05,13,44,18.60
2022,10,05,13,45,18.60
2022,10,05,13,46,18.60
2022,10,05,13,47,18.70
2022,10,05,13,48,18.70
2022,10,05,13,49,18.60
2022,10,05,13,50,18.50
2022,10,05,13,51,18.50
2022,10,05,13,52,18.40
2022,10,05,13,53,18.40
2022,10,05,13,54,18.30
2022,10,05,13,55,18.40
2022,10,05,13,56,18.40
2022,10,05,13,57,18.40
2022,10,05,13,58,18.50
2022,10,05,13,59,18.60
2022,10,05,14,00,18.60
2022,10,05,14,01,18.60
2022,10,05,14,02,18.60
2022,10,05,14,03,18.60
2022,10,05,14,04,18.60
2022,10,05,14,05,18.60
2022,10,05,14,06,18.50
2022,10,05,14,07,18.40
2022,10,05,14,08,18.40
2022,10,05,14,09,18.30
2022,10,05,14,10,18.30
2022,10,05,14,11,18.30
2022,10,05,14,12,18.40
2022,10,05,14,13,18.40
2022,10,05,14,14,18.30
2022,10,05,14,15,18.30
2022,10,05,14,16,18.20
2022,10,05,14,17,18.20
2022,10,05,14,18,18.20
2022,10,05,14,19,18.30
2022,10,05,14,20,18.40
2022,10,05,14,21,18.40
2022,10,05,14,22,18.40
2022,10,05,14,23,18.40
2022,10,05,14,24,18.40
2022,10,05,14,25,18.40
2022,10,05,14,26,18.30
2022,10,05,14,27,18.30
2022,10,05,14,28,18.30
2022,10,05,14,29,18.30
2022,10,05,14,30,18.30
2022,10,05,14,31,18.30
2022,10,05,14,32,18.20
2022,10,05,14,33,18.30
2022,10,05,14,34,18.30
2022,10,05,14,35,18.30
2022,10,05,14,36,18.30
2022,10,05,14,37,18.30
2022,10,05,14,38,18.30
2022,10,05,14,39,18.30
2022,10,05,14,40,18.30
2022,10,05,14,41,18.30
2022,10,05,14,42,18.40
2022,10,05,14,43,18.40
2022,10,05,14,44,18.50
2022,10,05,14,45,18.50
2022,10,05,14,46,18.40
2022,10,05,14,47,18.40
2022,10,05,14,48,18.40
2022,10,05,14,49,18.40
2022,10,05,14,50,18.40
2022,10,05,14,51,18.40
2022,10,05,14,52,18.50
2022,10,05,14,53,18.50
2022,10,05,14,54,18.50
2022,10,05,14,55,18.50
2022,10,05,14,56,18.50
2022,10,05,14,57,18.50
2022,10,05,14,58,18.50
2022,10,05,14,59,18.50
2022,10,05,15,00,18.50
2022,10,05,15,01,18.50
2022,10,05,15,02,18.60
2022,10,05,15,03,18.60
2022,10,05,15,04,18.50
2022,10,05,15,05,18.40
2022,10,05,15,06,18.40
2022,10,05,15,07,18.40
2022,10,05,15,08,18.40
2022,10,05,15,09,18.40
2022,10,05,15,10,18.30
2022,10,05,15,11,18.40
2022,10,05,15,12,18.40
2022,10,05,15,13,18.50
2022,10,05,15,14,18.60
2022,10,05,15,15,18.60
2022,10,05,15,16,18.60
2022,10,05,15,17,18.60
2022,10,05,15,18,18.70
2022,10,05,15,19,18.70
2022,10,05,15,20,18.70
2022,10,05,15,21,18.70
2022,10,05,15,22,18.70
2022,10,05,15,23,18.70
2022,10,05,15,24,18.70
2022,10,05,15,25,18.70
2022,10,05,15,26,18.70
2022,10,05,15,27,18.70
2022,10,05,15,28,18.70
2022,10,05,15,29,18.60
2022,10,05,15,30,18.60
2022,10,05,15,31,18.60
2022,10,05,15,32,18.60
2022,10,05,15,33,18.60
2022,10,05,15,34,18.60
2022,10,05,15,35,18.60
2022,10,05,15,36,18.60
2022,10,05,15,37,18.70
2022,10,05,15,38,18.60
2022,10,05,15,39,18.50
2022,10,05,15,40,18.40
2022,10,05,15,41,18.40
2022,10,05,15,42,18.30
2022,10,05,15,43,18.30
2022,10,05,15,44,18.30
2022,10,05,15,45,18.30
2022,10,05,15,46,18.30
2022,10,05,15,47,18.20
2022,10,05,15,48,18.20
2022,10,05,15,49,18.20
2022,10,05,15,50,18.20
2022,10,05,15,51,18.10
2022,10,05,15,52,18.10
2022,10,05,15,53,18.00
2022,10,05,15,54,17.90
2022,10,05,15,55,17.90
2022,10,05,15,56,17.90
2022,10,05,15,57,17.90
2022,10,05,15,58,18.00
2022,10,05,15,59,18.00
2022,10,05,16,00,18.10
2022,10,05,16,01,18.10
2022,10,05,16,02,18.10
2022,10,05,16,03,18.20
2022,10,05,16,04,18.20
2022,10,05,16,05,18.30
2022,10,05,16,06,18.30
2022,10,05,16,07,18.40
2022,10,05,16,08,18.40
2022,10,05,16,09,18.40
2022,10,05,16,10,18.40
2022,10,05,16,11,18.30
2022,10,05,16,12,18.30
2022,10,05,16,13,18.20
2022,10,05,16,14,18.20
2022,10,05,16,15,18.20
2022,10,05,16,16,18.10
2022,10,05,16,17,18.20
2022,10,05,16,18,18.20
2022,10,05,16,19,18.30
2022,10,05,16,20,18.30
2022,10,05,16,21,18.30
2022,10,05,16,22,18.30
2022,10,05,16,23,18.30
2022,10,05,16,24,18.30
2022,10,05,16,25,18.40
2022,10,05,16,26,18.40
2022,10,05,16,27,18.40
2022,10,05,16,28,18.40
2022,10,05,16,29,18.40
2022,10,05,16,30,18.50
2022,10,05,16,31,18.50
2022,10,05,16,32,18.60
2022,10,05,16,33,18.60
2022,10,05,16,34,18.60
2022,10,05,16,35,18.70
2022,10,05,16,36,18.70
2022,10,05,16,37,18.80
2022,10,05,16,38,18.80
2022,10,05,16,39,18.80
2022,10,05,16,40,18.80
2022,10,05,16,41,18.80
2022,10,05,16,42,18.80
2022,10,05,16,43,18.80
2022,10,05,16,44,18.80
2022,10,05,16,45,18.80
2022,10,05,16,46,18.80
2022,10,05,16,47,18.80
2022,10,05,16,48,18.80
2022,10,05,16,49,18.80
2022,10,05,16,50,18.80
2022,10,05,16,51,18.80
2022,10,05,16,52,18.70
2022,10,05,16,53,18.70
2022,10,05,16,54,18.70
2022,10,05,16,55,18.70
2022,10,05,16,56,18.70
2022,10,05,16,57,18.70
2022,10,05,16,58,18.60
2022,10,05,16,59,18.60
2022,10,05,17,00,18.60
2022,10,05,17,01,18.60
2022,10,05,17,02,18.50
2022,10,05,17,03,18.50
2022,10,05,17,04,18.50
2022,10,05,17,05,18.50
2022,10,05,17,06,18.50
2022,10,05,17,07,18.50
2022,10,05,17,08,18.50
2022,10,05,17,09,18.40
2022,10,05,17,10,18.40
2022,10,05,17,11,18.40
2022,10,05,17,12,18.30
2022,10,05,17,13,18.20
2022,10,05,17,14,18.20
2022,10,05,17,15,18.20
2022,10,05,17,16,18.20
2022,10,05,17,17,18.20
2022,10,05,17,18,18.20
2022,10,05,17,19,18.20
2022,10,05,17,20,18.20
2022,10,05,17,21,18.20